Location: Marstown
(39.5056°N, 77.0820°W)
Time: 17:16:54
(UTC-05:00)

Amateur Radio Satellites - All Passes

Search period start: 22 November 2017 16:46
Search period end: 23 November 2017 16:46
Location: Marstown, 39.5056°N, 77.0820°W

Satellite Date Start Highest point End Downlink Frequencies (MHz)
Time Altitude Azimuth
XW-2B 22 Nov 16:50:32 16:53:43 27° 71° (ENE) 16:56:55 145.730 - 145.750
NUDT-PHONESAT 22 Nov 16:59:00 17:01:56 23° 70° (ENE) 17:04:53 437.300
XW-2C 22 Nov 17:15:40 17:19:20 59° 75° (ENE) 17:23:01 145.795 - 145.815
LilacSat-2 22 Nov 17:19:32 17:23:16 74° 77° (ENE) 17:27:02 437.200
RS-15 22 Nov 17:21:52 17:32:48 40° 106° (ESE) 17:43:43 29.354- 29.394
XW-2F 22 Nov 17:24:52 17:28:33 73° 76° (ENE) 17:32:16 145.980 - 146.000
CUBEBUG 2 22 Nov 17:32:05 17:34:27 14° 65° (ENE) 17:36:47 437.445
YUBILEINY 22 Nov 17:39:41 17:47:59 47° 272° (W) 17:56:16 435.215
KKS-1 22 Nov 17:49:32 17:53:55 57° 287° (WNW) 17:58:16 437.445
KAITUO 1B 22 Nov 17:50:04 17:53:42 67° 258° (WSW) 17:57:23 145.475/437.950
DOVE 4 22 Nov 17:51:15 17:53:54 14° 271° (W) 17:56:36 437.250
CUTE-I 22 Nov 17:52:10 17:57:31 71° 258° (WSW) 18:02:55 437.470
CUTE 1.7 + AOD 2 22 Nov 17:53:54 17:57:45 37° 72° (ENE) 18:01:38 437.475
CUBESAT XI-V 22 Nov 18:04:08 18:05:27 11° 298° (WNW) 18:06:45 437.345
STARS 22 Nov 18:09:10 18:13:36 89° 277° (W) 18:17:57 437.465
XW-2D 22 Nov 18:09:46 18:12:54 25° 264° (W) 18:16:03 145.860 - 145.880
HO-68 22 Nov 18:11:43 18:18:53 76° 72° (ENE) 18:26:06 435.675
ZACube-1 22 Nov 18:13:52 18:14:44 11° 64° (ENE) 18:15:36 437.345
SEEDS 22 Nov 18:21:06 18:25:04 45° 73° (ENE) 18:29:04 437.485
AAUSAT CUBESAT 2 22 Nov 18:23:58 18:27:03 21° 68° (ENE) 18:30:10 437.432
UWE-3 22 Nov 18:24:00 18:27:44 27° 70° (ENE) 18:31:25 435.000/436.395/437.385
XW-2B 22 Nov 18:25:19 18:27:53 18° 266° (W) 18:30:28 145.730 - 145.750
NUDT-PHONESAT 22 Nov 18:33:01 18:35:43 20° 265° (W) 18:38:26 437.300
AO-73 22 Nov 19:00:38 19:04:23 31° 71° (ENE) 19:08:06 145.935
CUBEBUG 2 22 Nov 19:06:06 19:10:36 56° 260° (W) 19:15:01 437.445
Oscar 11 22 Nov 19:15:11 19:18:55 30° 70° (ENE) 19:22:40 .
XW-2A 22 Nov 19:28:48 19:32:00 46° 261° (W) 19:35:13 145.665 - 145.685
CUTE 1.7 + AOD 2 22 Nov 19:30:58 19:33:42 17° 267° (W) 19:36:27 437.475
RS-15 22 Nov 19:32:31 19:44:43 64° 308° (NW) 19:56:53 29.354- 29.394
FO-29 22 Nov 19:33:19 19:39:24 24° 90° (E) 19:45:07 435.910
NO-84 22 Nov 19:33:54 19:35:50 13° 17° (NNE) 19:37:48 435.350 FM
STRAND 1 22 Nov 19:34:40 19:39:47 70° 102° (ESE) 19:44:51 437.568
nSIGHT-1 22 Nov 19:36:46 19:39:44 35° 136° (SE) 19:42:42 .
ZACube-1 22 Nov 19:46:09 19:50:27 68° 259° (W) 19:54:41 437.345
AAUSAT CUBESAT 2 22 Nov 19:58:42 20:02:18 29° 264° (W) 20:05:58 437.432
SEEDS 22 Nov 19:58:52 20:00:59 14° 269° (W) 20:03:05 437.485
UWE-3 22 Nov 20:00:27 20:04:07 25° 264° (W) 20:07:44 435.000/436.395/437.385
HO-68 22 Nov 20:02:28 20:07:15 19° 269° (W) 20:12:03 435.675
DELFI C3 22 Nov 20:13:43 20:17:01 25° 70° (ENE) 20:20:20 145.870
ISS 22 Nov 20:25:53 20:29:09 85° 323° (NW) 20:32:26 437.550
AO-73 22 Nov 20:37:22 20:40:37 21° 265° (W) 20:43:51 145.935
Oscar 11 22 Nov 20:51:43 20:55:02 22° 266° (W) 20:58:23 .
EO-88 22 Nov 20:52:16 20:55:31 33° 72° (ENE) 20:58:48 145.990 - 145.960
Max Valier Satellite 22 Nov 20:57:37 21:01:12 58° 75° (ENE) 21:04:47 145.860
NO-84 22 Nov 21:10:08 21:14:09 40° 37° (NE) 21:18:11 435.350 FM
nSIGHT-1 22 Nov 21:13:12 21:16:00 26° 332° (NNW) 21:18:48 .
STRAND 1 22 Nov 21:15:41 21:18:20 14° 299° (WNW) 21:20:59 437.568
FO-29 22 Nov 21:17:10 21:24:57 67° 288° (WNW) 21:32:10 435.910
SO-50 22 Nov 21:19:01 21:23:27 77° 121° (ESE) 21:27:57 436.795
O/OREOS (USA 219) 22 Nov 21:35:48 21:37:41 12° 53° (NE) 21:39:34 437.305
UNISAT 6 22 Nov 21:40:00 21:44:08 47° 99° (E) 21:48:13 437.425
TIGRISAT 22 Nov 21:43:51 21:47:59 47° 99° (E) 21:52:04 435.000
DELFI C3 22 Nov 21:48:35 21:51:41 22° 265° (W) 21:54:49 145.870
RS-15 22 Nov 21:50:47 22:00:21 25° 336° (NNW) 22:09:47 29.354- 29.394
ISS 22 Nov 22:03:49 22:06:02 17° 340° (NNW) 22:08:15 437.550
PRISM 22 Nov 22:07:07 22:10:48 30° 97° (E) 22:14:28 437.425
ESTCUBE 1 22 Nov 22:18:45 22:22:53 38° 71° (ENE) 22:27:03 437.505/2401.250
EO-88 22 Nov 22:27:22 22:29:15 14° 267° (W) 22:31:09 145.990 - 145.960
LO-87 22 Nov 22:43:52 22:47:28 73° 259° (W) 22:51:04 145.935 - 145.965
NO-84 22 Nov 22:47:43 22:51:25 29° 233° (SW) 22:55:04 435.350 FM
nSIGHT-1 22 Nov 22:52:23 22:53:05 11° 352° (N) 22:53:47 .
POLYITAN 1 22 Nov 22:59:22 23:00:56 12° 91° (E) 23:02:32 437.675
SO-50 22 Nov 23:01:55 23:04:27 15° 319° (NW) 23:07:00 436.795
FO-29 22 Nov 23:04:48 23:08:24 14° 307° (NW) 23:11:57 435.910
AIST 2D 22 Nov 23:10:42 23:14:10 54° 99° (E) 23:17:39 435.315
PCSat 22 Nov 23:12:03 23:16:56 35° 110° (ESE) 23:21:50 145.827
O/OREOS (USA 219) 22 Nov 23:13:06 23:17:38 72° 252° (WSW) 23:22:06 437.305
SPROUT 22 Nov 23:14:41 23:18:36 36° 71° (ENE) 23:22:31 437.525
UNISAT 6 22 Nov 23:18:05 23:20:25 15° 295° (WNW) 23:22:45 437.425
QB50P2 22 Nov 23:21:14 23:24:42 24° 96° (E) 23:28:08 145.880/145.840
TIGRISAT 22 Nov 23:21:57 23:24:15 14° 295° (WNW) 23:26:32 435.000
PRISM 22 Nov 23:42:44 23:45:52 21° 293° (WNW) 23:49:00 437.425
ESTCUBE 1 22 Nov 23:56:40 23:59:48 19° 267° (W) 00:02:57 437.505/2401.250
50 SAT 23 Nov 00:00:58 00:02:32 13° 67° (ENE) 00:04:06 437.505
VELOX 1 23 Nov 00:07:05 00:11:31 89° 226° (SW) 00:16:00 145.980
DUCHIFAT 1 23 Nov 00:07:19 00:11:25 58° 100° (E) 00:15:31 145.980
RS-15 23 Nov 00:10:20 00:18:56 21° 13° (NNE) 00:27:15 29.354- 29.394
EO-79 23 Nov 00:16:59 00:21:11 81° 283° (WNW) 00:25:21 145.935-145.965
NANOSAT C BR1 23 Nov 00:18:56 00:23:08 87° 284° (WNW) 00:27:18 145.865
nSIGHT-1 23 Nov 00:29:11 00:30:29 12° 13° (NNE) 00:31:46 .
POLYITAN 1 23 Nov 00:32:57 00:37:01 52° 286° (WNW) 00:41:04 437.675
DX 1 23 Nov 00:46:41 00:50:56 54° 73° (ENE) 00:55:14 434.975-435.025
Oscar 19 23 Nov 00:47:52 00:51:51 22° 94° (E) 00:55:49 437.125/150
SPROUT 23 Nov 00:51:36 00:54:34 18° 267° (W) 00:57:32 437.525
BUGSAT 1 23 Nov 00:52:31 00:56:21 42° 99° (E) 01:00:08 437.445
PCSat 23 Nov 00:55:29 01:00:18 32° 307° (NW) 01:05:09 145.827
QB50P2 23 Nov 00:56:55 01:00:23 25° 291° (WNW) 01:03:51 145.880/145.840
BEESAT 3 23 Nov 00:58:28 00:59:49 11° 108° (ESE) 01:01:09 437.485
ISS 23 Nov 01:18:52 01:21:09 17° 21° (NNE) 01:23:25 437.550
UKube-1 23 Nov 01:24:35 01:28:54 90° 46° (NE) 01:33:16 .
Gurwin Techsat 1B 23 Nov 01:27:44 01:32:41 38° 98° (E) 01:37:37 435.225
BEESAT 23 Nov 01:29:25 01:32:07 15° 63° (ENE) 01:34:48 436.000
50 SAT 23 Nov 01:31:29 01:34:19 28° 262° (W) 01:37:10 437.505
MOZHAYETS 4 23 Nov 01:33:47 01:37:03 20° 66° (ENE) 01:40:19
ITUPSAT 1 23 Nov 01:39:45 01:43:03 19° 65° (ENE) 01:46:20 437.325
DUCHIFAT 1 23 Nov 01:45:02 01:46:34 12° 296° (WNW) 01:48:05 145.980
M-CUBED/EXP-1 PRIME 23 Nov 01:52:48 01:54:53 13° 96° (E) 01:56:58 437.505
nSIGHT-1 23 Nov 02:04:23 02:07:25 37° 32° (NNE) 02:10:25 .
AO-7 23 Nov 02:09:52 02:14:55 17° 91° (E) 02:19:54 .
BEESAT 2 23 Nov 02:12:41 02:15:46 22° 112° (ESE) 02:18:53 435.950
RS-15 23 Nov 02:24:08 02:35:33 47° 45° (NE) 02:46:19 29.354- 29.394
DX 1 23 Nov 02:25:32 02:27:25 13° 268° (W) 02:29:19 434.975-435.025
Oscar 19 23 Nov 02:26:27 02:31:18 42° 290° (WNW) 02:36:09 437.125/150
BUGSAT 1 23 Nov 02:29:08 02:31:19 14° 295° (WNW) 02:33:30 437.445
BEESAT 3 23 Nov 02:32:55 02:36:49 57° 303° (WNW) 02:40:47 437.485
AO-85 23 Nov 02:38:06 02:40:02 13° 109° (ESE) 02:41:59 145.980
ITAMSAT 1 23 Nov 02:45:18 02:48:26 16° 92° (E) 02:51:32 435.822/435.867
ISS 23 Nov 02:54:43 02:57:59 87° 222° (SW) 03:01:14 437.550
BEESAT 23 Nov 03:04:40 03:09:22 59° 259° (W) 03:14:05 436.000
Gurwin Techsat 1B 23 Nov 03:08:04 03:12:25 26° 294° (WNW) 03:16:46 435.225
MOZHAYETS 4 23 Nov 03:09:39 03:13:55 39° 262° (W) 03:18:11
KKS-1 23 Nov 03:13:08 03:14:37 11° 62° (ENE) 03:16:05 437.445
ITUPSAT 1 23 Nov 03:15:55 03:20:30 46° 260° (W) 03:25:06 437.325
M-CUBED/EXP-1 PRIME 23 Nov 03:25:00 03:29:33 65° 290° (WNW) 03:34:09 437.505
CUBESAT XI-V 23 Nov 03:26:05 03:30:37 68° 75° (ENE) 03:35:13 437.345
nSIGHT-1 23 Nov 03:40:59 03:43:28 21° 228° (SW) 03:45:57 .
BEESAT 2 23 Nov 03:49:41 03:53:18 32° 308° (NW) 03:56:58 435.950
AO-7 23 Nov 04:00:13 04:08:37 89° 104° (ESE) 04:17:00 .
DOVE 4 23 Nov 04:11:45 04:15:30 20° 91° (E) 04:19:07 437.250
AO-85 23 Nov 04:16:12 04:19:56 45° 306° (NW) 04:23:50 145.980
ITAMSAT 1 23 Nov 04:23:08 04:28:15 59° 288° (WNW) 04:33:20 435.822/435.867
RS-15 23 Nov 04:36:58 04:48:12 55° 249° (WSW) 04:58:51 29.354- 29.394
YUBILEINY 23 Nov 04:42:43 04:50:46 44° 87° (E) 04:58:54 435.215
KKS-1 23 Nov 04:46:05 04:50:32 71° 257° (WSW) 04:55:02 437.445
STARS 23 Nov 05:04:17 05:08:41 72° 74° (ENE) 05:13:07 437.465
CUBESAT XI-V 23 Nov 05:07:19 05:08:26 11° 271° (W) 05:09:34 437.345
STRAND 1 23 Nov 05:14:40 05:16:11 11° 59° (ENE) 05:17:43 437.568
KAITUO 1B 23 Nov 05:23:28 05:25:03 12° 92° (E) 05:26:37 145.475/437.950
XW-2D 23 Nov 05:42:22 05:45:47 31° 97° (E) 05:49:12 145.860 - 145.880
HO-68 23 Nov 05:43:07 05:46:33 14° 89° (E) 05:49:58 435.675
DOVE 4 23 Nov 05:48:31 05:53:23 43° 289° (WNW) 05:57:59 437.250
FO-29 23 Nov 05:49:59 05:50:16 10° 49° (NE) 05:50:32 435.910
SO-50 23 Nov 05:50:53 05:55:27 52° 55° (NE) 06:00:02 436.795
AO-7 23 Nov 05:54:33 06:00:19 21° 308° (NW) 06:06:05 .
XW-2B 23 Nov 05:57:04 06:00:45 46° 99° (E) 06:04:26 145.730 - 145.750
NUDT-PHONESAT 23 Nov 06:02:42 06:06:09 36° 98° (E) 06:09:35 437.300
CUTE-I 23 Nov 06:10:11 06:15:24 50° 100° (E) 06:20:34 437.470
XW-2C 23 Nov 06:22:43 06:26:32 78° 283° (WNW) 06:30:21 145.795 - 145.815
LilacSat-2 23 Nov 06:27:28 06:31:17 62° 284° (WNW) 06:35:04 437.200
XW-2F 23 Nov 06:31:24 06:35:09 65° 285° (WNW) 06:38:56 145.980 - 146.000
YUBILEINY 23 Nov 06:39:30 06:47:34 40° 287° (WNW) 06:55:43 435.215
STRAND 1 23 Nov 06:49:25 06:54:34 90° 62° (ENE) 06:59:45 437.568
KAITUO 1B 23 Nov 06:55:38 06:59:11 41° 287° (WNW) 07:02:45 145.475/437.950
CUBEBUG 2 23 Nov 06:58:02 07:01:40 29° 96° (E) 07:05:18 437.445
CUTE 1.7 + AOD 2 23 Nov 07:14:39 07:18:57 87° 103° (ESE) 07:23:14 437.475
XW-2D 23 Nov 07:17:11 07:19:42 17° 292° (WNW) 07:22:12 145.860 - 145.880
FO-29 23 Nov 07:26:58 07:33:26 54° 69° (ENE) 07:40:41 435.910
HO-68 23 Nov 07:27:57 07:35:10 87° 104° (ESE) 07:42:21 435.675
SO-50 23 Nov 07:32:28 07:35:30 17° 250° (WSW) 07:38:34 436.795
XW-2B 23 Nov 07:32:57 07:34:30 12° 294° (WNW) 07:36:01 145.730 - 145.750
ZACube-1 23 Nov 07:35:38 07:38:56 22° 95° (E) 07:42:14 437.345
NUDT-PHONESAT 23 Nov 07:37:39 07:39:39 14° 293° (WNW) 07:41:40 437.300
SEEDS 23 Nov 07:40:48 07:45:03 78° 283° (WNW) 07:49:18 437.485
AAUSAT CUBESAT 2 23 Nov 07:40:53 07:44:52 42° 98° (E) 07:48:50 437.432
UWE-3 23 Nov 07:49:48 07:53:55 66° 101° (E) 07:58:03 435.000/436.395/437.385
CUTE-I 23 Nov 07:51:08 07:55:03 21° 296° (WNW) 07:58:57 437.470
PCSat 23 Nov 08:00:41 08:05:11 26° 50° (NE) 08:09:40 145.827
FALCONSAT 3 23 Nov 08:22:47 08:25:25 19° 158° (SSE) 08:28:04 435.103
XW-2A 23 Nov 08:23:27 08:26:37 39° 286° (WNW) 08:29:47 145.665 - 145.685
AO-73 23 Nov 08:24:35 08:28:45 75° 103° (ESE) 08:32:55 145.935
CUBEBUG 2 23 Nov 08:35:01 08:38:07 21° 292° (WNW) 08:41:12 437.445
UNISAT 6 23 Nov 08:37:30 08:41:43 38° 72° (ENE) 08:45:51 437.425
Oscar 11 23 Nov 08:38:24 08:42:44 71° 102° (ESE) 08:47:03 .
TIGRISAT 23 Nov 08:41:13 08:45:25 38° 72° (ENE) 08:49:33 435.000
PRISM 23 Nov 08:55:45 08:58:45 20° 67° (ENE) 09:01:46 437.425
ZACube-1 23 Nov 09:11:40 09:15:11 27° 290° (WNW) 09:18:42 437.345
FO-29 23 Nov 09:13:15 09:18:49 28° 269° (W) 09:24:57 435.910
HO-68 23 Nov 09:17:23 09:21:58 19° 304° (NW) 09:26:33 435.675
AAUSAT CUBESAT 2 23 Nov 09:17:25 09:19:57 16° 294° (WNW) 09:22:27 437.432
DELFI C3 23 Nov 09:25:07 09:28:59 46° 99° (E) 09:32:48 145.870
UWE-3 23 Nov 09:29:32 09:29:48 10° 297° (WNW) 09:30:04 435.000/436.395/437.385
PCSat 23 Nov 09:43:36 09:48:47 47° 248° (WSW) 09:53:55 145.827
AIST 2D 23 Nov 09:44:45 09:47:00 17° 69° (ENE) 09:49:16 435.315
EO-88 23 Nov 09:54:34 09:58:08 49° 100° (E) 10:01:41 145.990 - 145.960
FALCONSAT 3 23 Nov 10:00:35 10:04:04 39° 172° (S) 10:07:32 435.103
Max Valier Satellite 23 Nov 10:01:38 10:05:19 86° 283° (WNW) 10:09:00 145.860
QB50P2 23 Nov 10:13:23 10:16:12 18° 66° (ENE) 10:19:01 145.880/145.840
UNISAT 6 23 Nov 10:15:16 10:18:30 19° 266° (W) 10:21:43 437.425
Oscar 11 23 Nov 10:17:23 10:18:15 11° 297° (WNW) 10:19:07 .
TIGRISAT 23 Nov 10:18:57 10:22:11 19° 266° (W) 10:25:24 435.000
PRISM 23 Nov 10:30:04 10:33:47 32° 263° (W) 10:37:32 437.425
BEESAT 2 23 Nov 10:31:25 10:33:16 13° 42° (NE) 10:35:05 435.950
BEESAT 3 23 Nov 10:50:13 10:54:06 56° 56° (NE) 10:57:55 437.485
DUCHIFAT 1 23 Nov 10:57:51 11:01:43 36° 71° (ENE) 11:05:35 145.980
DELFI C3 23 Nov 11:01:21 11:03:17 13° 295° (WNW) 11:05:12 145.870
EO-79 23 Nov 11:07:52 11:12:03 64° 75° (ENE) 11:16:15 145.935-145.965
AO-85 23 Nov 11:07:55 11:10:46 16° 44° (NE) 11:13:44 145.980
NANOSAT C BR1 23 Nov 11:09:30 11:13:39 58° 74° (ENE) 11:17:48 145.865
AIST 2D 23 Nov 11:17:04 11:19:57 25° 264° (W) 11:22:53 435.315
POLYITAN 1 23 Nov 11:23:49 11:28:04 83° 258° (WSW) 11:32:19 437.675
EO-88 23 Nov 11:30:40 11:31:19 10° 295° (WNW) 11:31:56 145.990 - 145.960
FALCONSAT 3 23 Nov 11:39:23 11:42:51 40° 188° (S) 11:46:20 435.103
BUGSAT 1 23 Nov 11:41:09 11:44:41 27° 70° (ENE) 11:48:12 437.445
LO-87 23 Nov 11:44:42 11:48:08 49° 285° (WNW) 11:51:32 145.935 - 145.965
O/OREOS (USA 219) 23 Nov 11:47:16 11:49:47 15° 99° (E) 11:52:19 437.305
QB50P2 23 Nov 11:47:43 11:51:40 38° 262° (W) 11:55:39 145.880/145.840
ESTCUBE 1 23 Nov 11:48:08 11:52:41 84° 282° (WNW) 11:57:13 437.505/2401.250
VELOX 1 23 Nov 11:58:52 12:01:57 18° 93° (E) 12:05:00 145.980
Oscar 19 23 Nov 12:03:45 12:08:08 30° 67° (ENE) 12:12:32 437.125/150
BEESAT 2 23 Nov 12:07:27 12:11:28 73° 241° (WSW) 12:15:25 435.950
BEESAT 3 23 Nov 12:29:57 12:31:06 11° 252° (WSW) 12:32:14 437.485
DUCHIFAT 1 23 Nov 12:34:41 12:37:29 17° 267° (W) 12:40:17 145.980
SPROUT 23 Nov 12:36:18 12:40:34 80° 104° (ESE) 12:44:47 437.525
M-CUBED/EXP-1 PRIME 23 Nov 12:38:43 12:39:41 11° 57° (ENE) 12:40:40 437.505
AO-85 23 Nov 12:46:54 12:51:40 79° 239° (WSW) 12:56:45 145.980
Gurwin Techsat 1B 23 Nov 12:47:45 12:52:56 56° 72° (ENE) 12:58:08 435.225
NANOSAT C BR1 23 Nov 12:48:38 12:49:41 11° 269° (W) 12:50:44 145.865
50 SAT 23 Nov 12:50:42 12:51:49 11° 93° (E) 12:52:56 437.505
AO-7 23 Nov 13:07:54 13:14:15 25° 55° (NE) 13:20:36 .
UKube-1 23 Nov 13:13:40 13:16:16 16° 93° (E) 13:18:51 .
BUGSAT 1 23 Nov 13:16:37 13:19:59 23° 265° (W) 13:23:20 437.445
FALCONSAT 3 23 Nov 13:18:50 13:21:30 19° 202° (SSW) 13:24:09 435.103
O/OREOS (USA 219) 23 Nov 13:24:13 13:28:42 51° 295° (WNW) 13:33:12 437.305
VELOX 1 23 Nov 13:34:22 13:38:31 39° 289° (WNW) 13:42:37 145.980
Oscar 19 23 Nov 13:42:52 13:47:21 31° 263° (W) 13:51:53 437.125/150
NO-84 23 Nov 14:00:57 14:04:24 57° 132° (SE) 14:08:11 435.350 FM
ITAMSAT 1 23 Nov 14:02:00 14:06:06 24° 65° (ENE) 14:10:14 435.822/435.867
M-CUBED/EXP-1 PRIME 23 Nov 14:09:57 14:13:27 57° 254° (WSW) 14:17:17 437.505
DX 1 23 Nov 14:11:32 14:15:54 69° 286° (WNW) 14:20:14 434.975-435.025
50 SAT 23 Nov 14:21:08 14:23:59 29° 288° (WNW) 14:26:48 437.505
Gurwin Techsat 1B 23 Nov 14:29:47 14:33:12 17° 268° (W) 14:36:38 435.225
UKube-1 23 Nov 14:48:21 14:52:28 43° 288° (WNW) 14:56:32 .
YUBILEINY 23 Nov 14:54:37 15:00:47 20° 64° (ENE) 15:06:54 435.215
AO-7 23 Nov 14:57:56 15:06:11 75° 253° (WSW) 15:14:32 .
MOZHAYETS 4 23 Nov 15:05:01 15:09:28 49° 100° (E) 15:13:54
BEESAT 23 Nov 15:05:40 15:10:04 36° 98° (E) 15:14:25 436.000
DOVE 4 23 Nov 15:15:48 15:19:29 20° 64° (ENE) 15:23:15 437.250
ITUPSAT 1 23 Nov 15:17:00 15:21:35 46° 99° (E) 15:26:09 437.325
CUBESAT XI-V 23 Nov 15:24:19 15:27:34 18° 93° (E) 15:30:48 437.345
NO-84 23 Nov 15:39:04 15:42:02 22° 332° (NNW) 15:45:10 435.350 FM
ITAMSAT 1 23 Nov 15:40:22 15:45:17 41° 261° (W) 15:50:14 435.822/435.867
JUGNU 23 Nov 15:44:15 15:44:39 10° 182° (S) 15:45:04 437.505
HO-68 23 Nov 16:14:11 16:15:48 11° 50° (NE) 16:17:25 435.675
XW-2D 23 Nov 16:23:51 16:25:48 14° 67° (ENE) 16:27:46 145.860 - 145.880
XW-2B 23 Nov 16:37:54 16:40:38 19° 69° (ENE) 16:43:21 145.730 - 145.750
KKS-1 23 Nov 16:38:27 16:42:00 23° 95° (E) 16:45:30 437.445
NUDT-PHONESAT 23 Nov 16:41:50 16:43:52 15° 67° (ENE) 16:45:56 437.300
